Location: Hall+in+Tirol
(47.2830°N, 11.5170°E)
Time: 06:37:24
(UTC+02:00)

Gurwin Techsat 1B - Visible Passes

Search period start: 29 July 2014 00:00
Search period end: 08 August 2014 00:00
Orbit: 812 x 815 km, 98.5° (Epoch: 28 July)

Date Brightness Start Highest point End Pass type
(mag) Time Alt. Az. Time Alt. Az. Time Alt. Az.
29 Jul 9.9 03:34:57 10° NNE 03:39:49 35° E 03:44:38 10° SSE visible
30 Jul 10.5 03:12:48 10° NE 03:16:58 23° E 03:21:06 10° SE visible
30 Jul 8.9 04:52:05 10° N 04:57:17 55° WNW 05:02:26 10° SW visible
31 Jul 11.0 02:51:06 10° NE 02:54:02 15° E 02:56:57 10° ESE visible
31 Jul 8.6 04:29:21 10° NNE 04:34:42 83° WNW 04:40:00 10° SSW visible
01 Aug 8.9 04:06:44 10° NNE 04:12:02 65° ESE 04:17:05 11° S visible
02 Aug 9.6 03:44:15 10° NNE 03:49:18 42° E 03:54:06 11° SSE visible
03 Aug 10.3 03:21:58 10° NE 03:26:29 28° E 03:30:58 10° SSE visible
03 Aug 9.1 05:01:35 10° N 05:06:39 46° WNW 05:11:42 10° SW visible
04 Aug 10.8 03:00:02 10° NE 03:03:36 18° E 03:07:09 10° SE visible
04 Aug 8.7 04:38:48 10° N 04:44:06 70° WNW 04:49:20 10° SSW visible
05 Aug 11.2 02:39:04 10° ENE 02:40:37 11° E 02:42:10 10° ESE visible
05 Aug 8.7 04:16:08 10° NNE 04:21:29 78° ESE 04:26:21 12° S visible
06 Aug 9.3 03:53:35 10° NNE 03:58:46 51° E 04:03:22 13° S visible
07 Aug 10.0 03:31:13 10° NNE 03:36:00 33° E 03:40:22 12° SSE visible
07 Aug 9.3 05:11:07 10° N 05:16:01 39° WNW 05:20:54 10° SW visible
